Location: Czekanka
(50.4925°N, 19.2643°E)
Time: 06:42:03
(UTC+00:00)

SL-16 R/B - Pass Details

Date: 25 September 2024
Orbit: 842 x 846 km, 71.0° (Epoch: 05 October)

Event Time Altitude Azimuth Distance (km) Brightness Sun altitude
Rises 00:56:16 0° 332° (NNW) 3,413 5.6 -32.1°
Reaches altitude 10° 00:59:05 10° 344° (NNW) 2,474 4.9 -31.8°
Maximum altitude 01:03:57 28° 43° (NE) 1,527 4.1 -31.3°
Drops below altitude 10° 01:08:47 10° 102° (ESE) 2,462 5.0 -30.7°
Sets 01:11:34 0° 114° (ESE) 3,394 5.6 -30.4°
